Wind_Speed
37 38 39 40 41 42 43 44 45 47 48 48 47 47 45 44 43 42 42 39 38 36 37 36 34 32 30 27 26 25 25 24 23 22 21 22 22 23 22 22 21 20 20
37 38 39 40 41 42 42 43 44 45 46 47 47 48 48 47 45 44 44 42 39 38 37 35 34 33 31 29 28 27 27 26 24 23 23 23 24 24 24 24 23 23 23
35 35 37 38 38 39 40 41 42 43 44 45 46 46 47 47 46 45 44 43 42 39 37 36 34 32 31 30 29 28 27 27 26 25 24 23 24 25 25 24 25 25 25
31 31 32 34 35 36 37 38 39 39 40 42 43 43 44 44 44 44 44 42 41 41 39 37 36 33 31 30 30 29 29 28 27 26 26 26 26 26 26 26 26 26 26
28 29 29 30 30 31 31 32 33 35 36 38 39 39 40 40 41 42 42 42 40 39 38 36 35 35 33 32 30 28 28 27 27 28 28 28 28 28 28 28 28 27 27
24 24 25 25 25 25 25 27 29 30 31 32 33 34 35 36 36 37 38 39 39 38 38 37 35 34 33 31 30 27 27 27 27 28 29 30 30 31 31 30 30 30 30
20 20 20 20 20 20 21 21 22 22 24 24 26 27 28 30 31 33 35 35 36 35 35 35 35 34 32 31 29 28 27 27 28 28 30 31 31 32 32 32 32 32 32
16 17 17 16 16 16 16 15 15 15 15 15 17 19 21 23 25 27 29 31 32 33 33 33 32 33 33 32 31 30 30 30 30 30 30 30 31 32 33 33 34 33 33
15 16 17 15 13 12 13 12 12 11 9 8 8 10 13 15 18 21 24 26 29 29 30 30 30 30 30 31 31 31 30 31 31 31 31 32 32 32 33 33 34 34 34
15 16 16 14 13 13 13 12 11 8 6 4 3 3 6 9 12 15 17 20 21 23 25 26 26 26 26 28 29 29 28 29 30 30 30 31 31 31 31 34 34 34 35
15 15 15 15 14 14 14 13 12 10 8 6 4 2 1 3 6 9 12 14 16 18 20 21 22 23 25 25 25 26 27 27 28 28 29 30 30 31 31 32 32 33 33
16 17 17 18 17 17 16 16 15 13 12 10 7 5 3 1 1 4 6 9 12 14 16 17 18 20 21 22 23 25 26 27 28 28 29 30 30 31 31 31 32 32 32
19 19 19 20 20 19 19 18 18 16 14 12 10 7 6 4 1 1 2 4 6 9 11 13 15 17 18 19 21 23 25 26 27 27 27 28 28 29 30 30 30 30 29
19 21 21 21 20 20 20 19 19 18 18 16 14 12 10 8 6 4 1 2 3 5 7 9 11 13 14 16 17 19 21 22 23 24 24 24 23 24 25 25 26 27 27
19 20 21 21 21 21 21 20 20 20 19 18 17 15 13 11 9 7 5 4 2 3 4 6 8 10 11 13 15 16 17 17 18 19 20 20 21 22 22 22 22 23 24
19 19 20 21 21 21 21 20 20 20 20 18 17 16 15 14 12 11 9 7 5 4 3 4 6 8 9 10 11 13 13 15 16 17 17 17 17 19 19 19 18 17 17
19 20 20 21 21 21 20 20 20 20 19 19 18 17 15 14 13 12 11 9 8 7 5 5 6 7 8 9 10 10 11 12 13 14 15 14 14 14 15 15 15 15 14
19 19 20 21 21 21 21 20 20 20 20 20 19 18 17 16 15 14 13 12 10 9 7 6 6 6 6 7 8 9 11 11 12 12 12 12 12 12 12 13 12 12 13
18 18 19 19 20 20 20 20 20 20 20 20 20 19 18 17 16 16 14 13 12 11 9 8 8 7 6 5 4 5 6 8 8 9 9 9 10 10 10 11 11 11 11
16 17 17 18 19 19 19 19 20 20 20 20 20 20 19 18 18 17 17 16 14 13 11 10 9 8 7 6 4 2 4 5 6 7 8 8 8 9 10 10 10 9 9
15 16 16 17 17 18 19 19 20 20 20 20 20 20 20 19 19 19 18 17 16 15 13 12 11 10 9 7 5 3 1 3 4 6 7 7 8 8 9 9 9 8 8
15 15 16 16 17 17 18 18 19 20 20 20 20 20 20 20 20 19 19 19 17 16 15 14 13 12 11 10 8 6 4 3 3 5 6 6 7 7 8 8 8 7 7
13 14 15 15 16 17 17 18 19 19 20 21 21 21 21 21 20 20 19 19 19 18 17 16 15 15 14 13 12 10 8 7 6 6 6 6 7 7 7 7 6 6 6
11 12 13 14 15 15 16 17 18 18 19 20 21 21 20 20 21 20 20 20 20 19 18 17 17 16 15 15 14 13 12 11 9 8 8 8 7 7 7 6 5 5 5
10 10 11 12 13 14 15 16 17 17 18 19 20 20 20 20 20 20 20 20 20 20 20 19 18 17 17 16 15 14 14 13 11 10 9 9 8 8 7 6 6 6 6
9 9 10 10 11 12 13 14 15 16 17 18 18 19 19 19 19 19 20 20 20 20 20 19 19 18 17 17 16 16 15 14 13 13 12 11 10 10 9 8 8 7 6
Wind_Direction
278 276 275 274 273 272 269 268 267 266 265 264 262 260 259 258 257 257 257 257 258 257 255 250 249 249 248 248 248 248 246 245 244 244 245 245 245 246 244 244 245 245 244
281 280 278 277 275 274 273 271 270 268 267 265 263 262 261 259 258 258 257 257 257 256 256 253 251 250 249 248 248 247 246 243 244 244 244 245 247 248 246 246 246 247 247
285 283 281 280 280 278 277 275 273 271 269 266 264 262 261 261 259 257 257 256 254 255 255 252 251 251 249 247 246 245 243 242 242 242 243 245 247 247 248 248 248 248 249
291 289 287 286 285 283 280 278 276 273 270 267 265 262 260 259 258 257 255 255 254 253 254 255 253 252 250 250 248 247 245 243 243 243 244 247 247 247 249 250 251 250 250
299 298 296 294 292 288 284 282 279 276 272 269 265 262 259 257 256 254 252 252 253 253 252 253 254 254 256 254 251 248 245 245 246 247 248 250 249 248 250 251 251 252 252
308 306 303 301 297 295 291 288 286 282 276 271 265 261 257 254 251 250 249 249 250 250 250 251 252 254 254 255 252 249 247 248 248 249 250 251 250 248 249 249 251 253 254
320 319 316 311 306 303 300 297 295 291 284 275 266 259 254 251 247 247 246 246 246 247 248 249 251 253 253 254 255 253 253 254 253 252 251 249 249 249 248 248 249 251 253
335 336 334 329 323 320 316 311 308 305 295 281 270 258 249 245 242 242 242 242 243 243 244 246 248 250 251 253 253 252 253 255 253 252 251 250 249 251 249 249 249 250 251
349 348 350 347 344 345 344 338 332 326 316 300 280 256 244 238 237 236 237 237 238 239 240 241 242 246 248 249 249 250 251 252 250 249 250 251 250 249 249 250 250 250 251
1 1 2 2 3 2 1 0 1 359 353 353 340 282 254 238 233 232 233 231 232 235 238 240 240 243 245 245 247 247 249 250 249 250 251 251 251 250 251 251 251 252 253
16 14 17 17 18 20 21 25 21 23 27 32 31 8 296 247 230 226 230 229 228 230 235 238 241 242 244 243 244 245 245 246 248 250 251 252 253 251 252 252 253 253 253
32 33 34 33 35 36 36 34 34 36 40 40 38 43 35 24 232 233 234 230 231 232 233 236 240 243 241 242 244 246 248 249 251 251 252 253 253 252 252 252 253 255 255
43 44 44 43 44 45 45 41 41 42 41 40 40 42 51 51 54 223 226 230 228 233 236 240 242 243 244 245 247 249 249 251 252 252 252 252 253 252 251 252 253 254 254
48 46 46 45 46 48 48 48 47 47 47 49 49 52 53 53 53 55 62 253 240 243 246 248 250 251 251 250 249 250 250 251 250 250 250 249 249 249 248 250 251 251 251
49 48 48 48 49 50 50 50 49 48 46 48 46 45 45 44 44 41 35 26 4 303 264 259 259 256 258 256 255 254 248 245 244 246 246 247 246 244 244 246 246 246 246
50 49 49 48 49 50 49 48 47 46 46 44 42 40 41 42 38 34 29 21 7 346 310 287 283 272 266 263 260 254 248 243 243 245 243 242 243 241 239 240 239 238 238
51 50 50 50 49 49 48 46 46 44 42 41 39 40 40 39 36 33 27 21 12 2 342 320 306 293 281 273 266 260 254 246 241 240 240 237 235 234 232 230 228 226 227
52 50 49 48 47 47 47 45 43 41 40 39 38 37 36 35 33 30 28 25 21 12 3 353 336 315 300 287 274 259 249 243 233 228 226 225 228 228 228 226 223 223 222
48 47 46 45 44 45 44 42 41 39 39 37 36 35 33 32 30 29 27 25 23 20 16 9 358 348 336 322 299 259 237 230 222 215 214 216 221 220 218 217 216 220 222
44 44 43 41 41 41 41 40 39 37 37 35 34 33 33 32 31 30 29 27 26 24 21 18 13 10 4 353 338 290 224 216 217 209 207 207 204 202 204 206 207 211 214
42 41 40 39 40 40 40 39 38 37 36 35 34 33 33 34 33 32 31 29 29 28 26 26 25 24 23 22 27 34 121 185 193 194 196 197 195 193 194 200 205 206 208
40 40 39 39 40 40 39 39 38 37 36 35 35 34 34 35 34 33 32 32 32 32 33 35 36 37 37 40 46 50 64 108 151 164 168 174 179 180 183 186 189 193 199
35 37 38 39 39 39 39 38 37 37 36 35 35 36 36 36 36 35 35 35 36 38 40 43 44 45 46 49 54 58 69 89 114 132 141 150 159 165 169 175 179 183 187
27 29 32 35 36 37 36 36 36 36 36 36 36 36 37 37 37 37 38 39 41 43 45 47 49 50 52 54 57 62 67 78 92 110 124 132 140 145 153 161 167 170 177
20 23 27 30 32 34 34 34 34 34 34 35 35 36 36 37 38 39 40 41 43 45 48 50 52 53 55 57 60 63 68 74 83 95 108 116 123 127 129 130 134 143 153
11 14 17 21 24 27 30 31 31 31 32 33 34 35 36 38 39 40 42 43 44 46 49 51 52 54 57 59 63 66 70 74 80 86 92 98 107 110 111 112 117 121 125
Height
5864 5862 5860 5858 5857 5856 5854 5853 5852 5852 5851 5851 5852 5853 5853 5854 5855 5856 5857 5859 5860 5862 5862 5864 5866 5868 5869 5871 5873 5875 5877 5878 5879 5881 5882 5883 5885 5886 5887 5888 5889 5890 5891
5855 5852 5850 5848 5846 5845 5843 5842 5841 5840 5839 5839 5840 5841 5842 5844 5845 5846 5848 5849 5852 5854 5856 5857 5859 5860 5862 5863 5865 5868 5870 5871 5873 5875 5876 5878 5880 5880 5882 5883 5884 5885 5886
5846 5843 5841 5838 5836 5834 5832 5830 5829 5828 5827 5827 5828 5829 5830 5832 5834 5836 5838 5840 5843 5845 5848 5849 5851 5853 5855 5856 5858 5860 5862 5865 5867 5868 5871 5872 5873 5875 5876 5877 5879 5880 5881
5838 5834 5831 5829 5826 5823 5821 5819 5817 5816 5815 5815 5816 5817 5819 5820 5823 5825 5828 5830 5833 5836 5839 5841 5843 5846 5847 5849 5851 5853 5855 5857 5860 5862 5864 5866 5867 5869 5870 5872 5873 5874 5875
5830 5827 5823 5820 5817 5814 5811 5809 5807 5805 5804 5803 5804 5805 5807 5809 5811 5814 5817 5820 5824 5827 5830 5833 5835 5837 5839 5841 5843 5845 5847 5850 5853 5855 5857 5859 5860 5862 5864 5865 5866 5867 5868
5824 5820 5816 5813 5809 5806 5803 5800 5798 5795 5794 5793 5793 5794 5795 5798 5801 5804 5807 5811 5814 5818 5821 5824 5827 5829 5832 5833 5835 5837 5840 5842 5845 5847 5849 5851 5853 5855 5856 5858 5859 5860 5861
5820 5816 5811 5807 5804 5800 5797 5793 5790 5787 5785 5784 5784 5784 5786 5788 5791 5795 5798 5802 5805 5809 5812 5816 5819 5822 5824 5826 5827 5830 5833 5835 5837 5839 5841 5843 5845 5846 5848 5850 5851 5852 5853
5817 5813 5808 5804 5800 5796 5792 5788 5785 5782 5779 5778 5777 5777 5779 5781 5784 5787 5790 5794 5797 5800 5804 5807 5811 5813 5816 5818 5821 5823 5825 5827 5830 5831 5833 5835 5837 5838 5840 5842 5843 5844 5845
5815 5811 5806 5802 5798 5793 5790 5786 5783 5780 5777 5775 5774 5774 5775 5777 5779 5781 5784 5787 5790 5793 5797 5800 5803 5805 5808 5810 5813 5815 5817 5819 5821 5823 5825 5826 5828 5829 5831 5833 5834 5836 5837
5814 5810 5806 5801 5797 5793 5790 5786 5783 5779 5777 5775 5774 5774 5774 5774 5776 5778 5780 5782 5784 5787 5791 5793 5796 5799 5801 5803 5805 5807 5809 5811 5813 5815 5817 5818 5820 5821 5823 5824 5825 5827 5828
5815 5811 5806 5802 5798 5794 5791 5787 5784 5781 5778 5777 5775 5774 5774 5775 5775 5776 5777 5779 5781 5783 5786 5788 5790 5792 5794 5796 5798 5800 5802 5804 5806 5807 5809 5810 5811 5813 5814 5815 5817 5818 5819
5817 5812 5808 5804 5800 5796 5793 5790 5787 5784 5781 5779 5778 5776 5776 5776 5776 5776 5776 5777 5778 5780 5782 5784 5786 5787 5789 5790 5792 5793 5795 5797 5798 5800 5801 5802 5804 5805 5806 5807 5809 5810 5811
5819 5815 5811 5807 5804 5800 5797 5794 5791 5788 5785 5783 5781 5779 5778 5777 5776 5776 5776 5776 5777 5778 5779 5780 5781 5782 5783 5784 5785 5787 5788 5789 5791 5792 5793 5795 5796 5797 5798 5799 5801 5802 5803
5823 5819 5815 5811 5808 5804 5801 5798 5795 5792 5789 5786 5784 5782 5781 5779 5778 5777 5777 5776 5776 5777 5777 5777 5777 5778 5778 5779 5780 5781 5782 5783 5784 5785 5786 5787 5788 5790 5791 5792 5793 5795 5797
5827 5823 5819 5816 5812 5809 5806 5803 5800 5797 5793 5791 5788 5786 5783 5782 5780 5779 5777 5776 5776 5775 5774 5775 5774 5774 5774 5775 5775 5775 5776 5776 5777 5778 5779 5781 5782 5783 5785 5786 5787 5789 5790
5830 5827 5824 5820 5817 5813 5810 5807 5804 5801 5798 5795 5792 5789 5786 5784 5782 5780 5778 5776 5775 5774 5773 5772 5772 5771 5771 5770 5770 5770 5770 5771 5772 5773 5774 5775 5777 5778 5779 5781 5782 5784 5785
5834 5831 5828 5825 5821 5818 5815 5811 5808 5805 5802 5799 5795 5792 5789 5787 5784 5781 5779 5777 5775 5773 5772 5770 5769 5768 5767 5767 5766 5766 5766 5766 5767 5768 5770 5771 5772 5773 5775 5776 5778 5779 5781
5838 5835 5832 5829 5826 5822 5819 5816 5812 5809 5805 5802 5799 5795 5792 5789 5786 5783 5780 5778 5775 5773 5771 5769 5767 5766 5764 5763 5762 5762 5762 5762 5763 5764 5766 5767 5768 5770 5772 5773 5775 5776 5778
5842 5839 5836 5833 5830 5826 5823 5820 5816 5813 5809 5805 5802 5798 5795 5792 5788 5785 5782 5779 5776 5773 5771 5769 5766 5764 5762 5760 5759 5759 5758 5759 5760 5761 5762 5764 5766 5768 5769 5771 5773 5774 5775
5845 5842 5839 5836 5833 5830 5826 5823 5820 5816 5812 5809 5805 5802 5798 5794 5791 5787 5783 5780 5777 5774 5771 5769 5766 5764 5761 5759 5757 5757 5757 5757 5758 5759 5760 5762 5764 5766 5767 5769 5771 5772 5773
5848 5845 5843 5840 5836 5833 5830 5827 5823 5819 5816 5812 5808 5805 5801 5797 5793 5790 5786 5782 5779 5776 5772 5769 5767 5764 5761 5759 5757 5756 5756 5756 5756 5758 5759 5761 5762 5764 5766 5768 5769 5770 5772
5851 5848 5845 5842 5839 5836 5833 5830 5826 5823 5819 5816 5812 5808 5804 5800 5796 5793 5789 5785 5781 5778 5774 5771 5768 5765 5763 5760 5758 5757 5756 5756 5757 5758 5759 5760 5762 5764 5765 5767 5768 5770 5771
5853 5851 5848 5845 5842 5839 5836 5833 5830 5826 5823 5819 5815 5811 5807 5803 5800 5796 5792 5788 5784 5781 5777 5774 5771 5768 5765 5763 5761 5759 5758 5758 5758 5758 5759 5761 5762 5764 5765 5767 5768 5769 5770
5855 5853 5850 5847 5845 5842 5839 5836 5832 5829 5826 5822 5818 5815 5811 5807 5803 5799 5796 5792 5788 5784 5781 5778 5775 5772 5769 5767 5765 5763 5762 5761 5760 5761 5761 5762 5763 5765 5766 5767 5768 5769 5770
5856 5854 5851 5849 5847 5844 5841 5838 5835 5832 5829 5825 5822 5818 5814 5811 5807 5803 5800 5796 5792 5789 5786 5782 5779 5777 5774 5772 5769 5767 5766 5765 5764 5764 5764 5765 5766 5767 5767 5768 5769 5770 5770
5857 5854 5852 5850 5848 5845 5843 5840 5837 5834 5831 5828 5825 5821 5818 5814 5811 5807 5804 5800 5797 5794 5790 5787 5784 5782 5779 5776 5774 5772 5771 5770 5769 5768 5768 5768 5769 5769 5770 5770 5771 5771 5772